Погода в Семейкине

Россия / Ивановская область     56°48′30″N   41°20′23″E
темп.,
°C
ветер,
м/с
пор.,
м/с
влажн.,
%
обл.,
%
осадки,
мм/ч
давл.,
гПа
погр.,
м
21 июня, пн
пн2100:00+19юз22840 0.0 102042
03:00+17зюз23885 0.0 102156
06:00+21юз238148 0.0 1021130
09:00+26юз235927 0.0 1021667
12:00+29юз334789 0.0 10211593
15:00+30юз3345100 0.0 10201742
18:00+27юз255857 0.0 1020321
21:00+21зюз1277100 0.0 102111
22 июня, вт
вт2200:00+20юз2278100 0.0 102112
03:00+18юз229143 0.0 102218
06:00+21юз1282100 0.0 102293
09:00+26зюз126083 0.0 1022593
12:00+30ююз23435 0.0 10211765
15:00+31юз333736 0.0 10212023
18:00+29з23530 0.0 1020211
21:00+23з11740 0.0 102011
23 июня, ср
ср2300:00+21юз11800 0.0 102111
03:00+20зюз12860 0.0 102113
06:00+23з23790 0.0 1021120
09:00+28з235785 0.0 1021615
12:00+32ссз124598 0.0 10201644
15:00+33ссв23395 0.0 10202243
18:00+31всв015659 0.0 1019590
21:00+24сз12810 0.1 101922
24 июня, чт
чт2400:00+22зсз11865 0.0 102011
03:00+21з22865 0.0 102013
06:00+23з137936 0.0 102098
09:00+28з2355100 0.0 1019493
12:00+32зсз234099 0.0 10191680
15:00+33з233690 0.0 10182153
18:00+31зюз36515 0.0 1016469
21:00+24зюз12740 0.0 101611
25 июня, пт
пт2500:00+22зюз22830 0.2 101731
03:00+20з23830 0.2 101653
06:00+22юз23793 0.0 1016112
09:00+28юз24550 0.0 1016565
12:00+32з35390 0.0 10152078
15:00+33зсз35361 0.0 10142544
18:00+30сз24520 0.0 1013573
21:00+22зюз239250 1.9 101471